www.pogodaiklimat.ru

Погода и климат >> Архив погоды >> Россия >> Волгоградская область >> Калач-на-Дону


ПОГОДА в Калаче-на-Дону

  • Прогноз погоды в Калаче-на-Дону
  • Монитор погоды в Калаче-на-Дону

АРХИВ ПОГОДЫ в Калаче-на-Дону

Время (UTC), дата Ветер
(напр.,м/с)
 
Видим.   Явления Облачность Т
(С)
Тd
(С)
f
(%)
Тe
(С)
Тes
(С)
Комфортность P
(гПа)
Po
(гПа)
Тmin
(С)
Tmax
(С)
R
(мм)
R24
(мм)
S
(см)
09 12.07 СВ 2 10 км слаб. дождь 10/10 300 м
[Frnb Ns]
+15.6 +14.3 92 +15 +15 1007.1 1002.6
12 12.07 С 2 20 км {дождь} 10/4 600 м
[Cb cap Ac As]
+18.8 +13.0 69 +20 +22 1007.3 1002.9
15 12.07 СЗ 1 20 км 8/0
[Ci]
+20.7 +12.0 57 +24 +26 комфорт 1006.9 1002.5 +20.9 9
18 12.07 Ю 1 10 км 3/0
[Ac lent]
+16.4 +13.8 85 +17 +17 1008.1 1003.6
21 12.07 СЗ 1 10 км ясно +15.5 +14.2 92 +16 +16 1007.9 1003.4
00 13.07 штиль 0 10 км ясно +13.2 +12.3 94 +13 +13 1007.4 1002.9
03 13.07 штиль 0 20 км 8/0
[Ci]
+17.1 +14.8 86 +17 +19 1007.8 1003.3 +13.1
06 13.07 ЮВ 2 20 км 10/0
[Ci fib]
+22.3 +15.3 65 +26 +35 жарко 1007.7 1003.3
09 13.07 Ю 3 20 км 9/8 600 м
[Cb cap Ci fib]
+26.3 +10.2 36 +27 +30 жарко 1007.6 1003.2
12 13.07 З 5 20 км 9/9 600 м
[Cb cap]
+25.1 +11.3 42 +26 +27 жарко 1007.4 1003.0
15 13.07 Ю 1
{11}
10 км слаб. ливневой дождь 10/10 600 м
[Cb cap]
+19.5 +13.6 69 +22 +22 комфорт 1009.6 1005.1 +27.6 0.0
18 13.07 Ю 1 10 км {ливн. осадки} 10/10 600 м
[Cb cap]
+17.5 +14.7 84 +19 +19 1009.8 1005.3
21 13.07 штиль 0 10 км 10/10 600 м
[Cb cap]
+17.5 +14.1 80 +17 +17 1009.7 1005.2
00 14.07 ЮВ 1 10 км 10/10 600 м
[Cb cap]
+15.9 +14.7 93 +17 +17 1009.3 1004.8
03 14.07 С 1 20 км 8/1 600 м
[Cb cap Ci fib]
+17.8 +13.9 78 +19 +20 1009.6 1005.1 +14.5
06 14.07 СЗ 2 20 км 3/1 600 м
[Cb cap Ci fib]
+22.0 +11.4 51 +24 +33 комфорт 1009.6 1005.2
09 14.07 Ю 1 20 км 8/8 600 м
[Cb cap]
+23.3 +11.2 46 +26 +30 жарко 1009.2 1004.8
12 14.07 СЗ 3 20 км 8/5 600 м
[Cb cap Ac trans]
+26.1 +8.8 33 +26 +29 жарко 1008.4 1004.0
15 14.07 Ю 1 20 км 3/3 600 м
[Cb cap]
+26.8 +7.7 30 +27 +28 жарко 1007.8 1003.5 +27.5
18 14.07 З 3 10 км 4/4 600 м
[Cb cap]
+22.9 +11.4 48 +25 +25 комфорт 1008.5 1004.1
21 14.07 С 2 10 км ясно +19.4 +10.5 56 +21 +21 комфорт 1008.5 1004.1
00 15.07 штиль 0 10 км 1/0
[Ac trans]
+14.4 +11.9 85 +14 +14 1008.0 1003.5
03 15.07 штиль 0 20 км 8/0
[Ci fib]
+17.6 +12.4 72 +18 +19 1008.5 1004.1 +13.8
06 15.07 ЮЗ 1 20 км ясно +24.5 +13.3 50 +27 +39 жарко 1008.5 1004.1
09 15.07 Ю 2 20 км 8/8 600 м
[Cb cap]
+28.4 +9.8 31 +28 +32 жарко 1008.0 1003.7
12 15.07 Ю 2 20 км 9/6 600 м
[Cb cap Ci]
+30.1 +9.2 27 +30 +33 жарко 1006.9 1002.6
15 15.07 В 3 20 км 10/6 600 м
[Cb cap As trans]
+27.5 +9.5 32 +28 +28 жарко 1007.3 1003.0 +30.6
18 15.07 штиль 0 10 км 10/0
[As trans]
+21.3 +14.4 65 +24 +24 комфорт 1008.3 1003.9
21 15.07 штиль 0 10 км 10/0
[Ac As]
+20.2 +13.3 65 +22 +22 комфорт 1008.0 1003.6
00 16.07 СЗ 1 10 км 10/10 600 м
[Sc]
+20.9 +12.6 59 +24 +24 комфорт 1008.0 1003.6
03 16.07 СЗ 1 10 км слаб. дождь 10/0 600 м
[As op]
+18.5 +15.9 85 +20 +21 1008.6 1004.1 +18.5 1
06 16.07 С 1 4000 м дождь 10/10 300 м
[Frnb Ns]
+18.0 +17.1 94 +19 +19 1009.5 1005.1 +18.0
09 16.07 В 2 10 км слаб. дождь 10/10 300 м
[Frnb Ns]
+19.2 +16.8 86 +21 +21 комфорт 1009.3 1004.8
12 16.07 В 3 20 км {дождь} 10/10 600 м
[Sc]
+19.5 +16.3 82 +22 +22 комфорт 1007.9 1003.4
15 16.07 В 3 20 км 10/8 600 м
[Sc Cs]
+20.9 +16.1 74 +25 +25 комфорт 1007.2 1002.8 +20.9 10
18 16.07 штиль 0 10 км 10/8 600 м
[Sc Ac lent]
+18.8 +16.1 84 +20 +20 1007.1 1002.7
21 16.07 СВ 1 2000 м ливневой дождь, в посл. час гроза 10/10 600 м
[Cb calv]
+18.4 +17.7 96 +20 +20 1006.3 1001.9
00 17.07 Ю 2 10 км {гроза} 3/3 600 м
[Cb cap]
+18.5 +17.3 93 +20 +20 1005.2 1000.8
03 17.07 ЮЗ 3 20 км 10/8 600 м
[Cb cap Ci]
+19.0 +17.2 89 +21 +21 комфорт 1005.4 1001.0 +17.6 8
06 17.07 ЮЗ 3 20 км 10/10 600 м
[Cb cap]
+20.1 +17.0 82 +23 +23 комфорт 1005.6 1001.2
09 17.07 З 3
{10}
20 км 10/10 600 м
[Cb cap]
+22.8 +15.1 62 +27 +27 душно 1005.9 1001.5
12 17.07 З 2 20 км 9/9 600 м
[Cb cap]
+26.2 +13.5 45 +28 +29 жарко 1005.8 1001.4
15 17.07 СЗ 3 20 км 8/8 600 м
[Cb cap Ci fib]
+26.4 +12.9 43 +28 +28 жарко 1005.8 1001.5 +27.3
18 17.07 СЗ 1 10 км 8/8 600 м
[Cb cap]
+22.6 +12.9 54 +25 +25 комфорт 1007.0 1002.6
21 17.07 З 1 10 км 4/0
[Ci fib]
+16.2 +14.7 91 +17 +17 1008.1 1003.6
00 18.07 штиль 0 10 км 1/0
[Ci fib]
+14.8 +14.1 96 +14 +14 1007.9 1003.3
03 18.07 штиль 0 20 км 3/3 600 м
[Cb cap Ci fib]
+17.9 +15.7 87 +18 +19 1008.3 1003.8 +14.4
06 18.07 Ю 2 20 км ясно +25.0 +16.1 58 +28 +39 жарко 1008.7 1004.3
09 18.07 ЮВ 3 20 км 6/5 600 м
[Cb cap Ci fib]
+28.2 +12.0 37 +29 +36 жарко 1008.5 1004.2
12 18.07 З 1 20 км 8/6 600 м
[Cb cap Ac trans]
+29.6 +11.0 32 +30 +34 жарко 1008.3 1004.0
15 18.07 З 2 20 км 10/8 600 м
[Cb cap Ac trans]
+27.4 +11.9 38 +29 +29 жарко 1008.6 1004.3 +30.8
18 18.07 З 3
{14}
10 км в посл. час дождь 10/10 600 м
[Sc]
+20.7 +16.2 75 +24 +24 комфорт 1011.2 1006.8
21 18.07 Ю 3 10 км слаб. дождь 10/0 300 м
[As op]
+19.2 +16.3 83 +21 +21 комфорт 1012.0 1007.5
00 19.07 СЗ 1 10 км {дождь} 8/0
[Ac trans]
+18.2 +17.2 94 +20 +20 1012.1 1007.6
03 19.07 С 1 20 км 5/0
[Ci fib]
+18.5 +17.1 92 +20 +22 1013.0 1008.6 +16.9 3
06 19.07 ЮЗ 1 20 км ясно +25.4 +14.9 52 +28 +40 жарко 1013.1 1008.7

 

Местоположение метеостанции Калач-на-Дону (Волгоградская область, Россия): широта 48.68 долгота 43.48 высота над уровнем моря 38 м.

В архиве по умолчанию представлена погода в Калаче-на-Дону за последнюю неделю. Архивные данные за месяц целиком и за предыдущие месяцы, начиная с января 2011 года, Вы можете получить, выбрав интересующий диапазон дат из раскрывающегося списка и нажав кнопку "Ввод!".


*Определитесь, кто Вы:
робот инопланетянин человек

Внимание! Время в таблицах - всемирное. Для получения местного времени необходимо прибавить поправку, которая равна 3 ч.

Смотрите также архив погоды в соседних городах и на ближайших метеорологических станциях:

Погода в Нижнем Чире (Волгоградская область, Россия) (47 км)
Погода в Волгограде (Волгоградская область, Россия) (66 км)
Погода в Волгограде город (Волгоградская область, Россия) (71 км)
Погода в Иловле (Волгоградская область, Россия) (79 км)
Погода в Серафимовиче (Волгоградская область, Россия) (113 км)
Погода в Котельниково (Волгоградская область, Россия) (119 км)
Погода в Малых Дербетах (Калмыкия, Россия) (123 км)
Погода в Морозовске (Ростовская область, Россия) (124 км)
Погода в Фролове (Волгоградская область, Россия) (125 км)
Погода в Боковской (Ростовская область, Россия) (135 км)

Пояснения к столбцам:

Ветер - указаны скорость ветра в м/с - средняя за 10 мин, порывы в срок и между сроками (в фигурных скобках) и направление, откуда дует ветер: С - северный, СВ - северо-восточный, В - восточный, ЮВ - юго-восточный, Ю - южный, ЮЗ - юго-западный, З - западный, СЗ - северо-западный.
Видимость - горизонтальная дальность видимости в метрах или километрах. При видимости от 1 до 10 км при отсутствии осадков обычно наблюдается дымка, при ухудшении видимости до 1 км и менее - туман. В сухую погоду видимость может ухудшаться дымом, пылью или мглою.
Явления - указаны атмосферные явления, наблюдавшиеся в срок или в последний час перед сроком; фигурными скобками обозначены явления, наблюдавшиеся между сроками (за 1-3 часа до срока); квадратными скобками обозначены град или гололедные отложения с указанием их диаметра в мм.
Облачность - указаны через наклонную черту общая и нижняя облачность в баллах и высота нижней границы облаков в метрах; квадратными скобками обозначены формы облаков: Ci - перистые, Cs - перисто-слоистые, Cc - перисто-кучевые, Ac - высококучевые, As - высокослоистые, Sc - слоисто-кучевые, Ns - слоисто-дождевые, Cu - кучевые, Cb - кучево-дождевые. Подробнее классификацию облаков см. в Атласе облаков (PDF).
T - Температура воздуха - температура, измеренная на высоте 2 м над землей.
Td - Температура точки росы - температура, при понижении до которой содержащийся в воздухе водяной пар достигнет насыщения.
f - Относительная влажность воздуха - влажноcть воздуха, измеренная на высоте 2 м над землей.
Te - Эффективная температура - температура, которую ощущает одетый по сезону человек в тени. Характеристика душности погоды. При расчете учитывается влияние влажности воздуха и скорости ветра на теплоощущения человека.
Tes - Эффективная температура на солнце - температура, которую ощущает человек, с поправкой на солнечный нагрев. Характеристика знойности погоды. Зависит от высоты солнца над горизонтом, облачности и скорости ветра. Ночью, в пасмурную погоду, а также при ветре 12 м/с и более поправка равна нулю.
P - Атмосферное давление - приведенное к уровню моря атмосферное давление.
Po - Атмосферное давление - измеренное на уровне метеостанции атмосферное давление.
Tmin - Минимальная температура - минимум температуры воздуха на высоте 2 м над землей.
Tmax - Максимальная температура - максимум температуры воздуха на высоте 2 м над землей.
R - Количество осадков - Количество выпавших осадков за период времени, мм. При наведении курсора мыши на число - период времени, за который выпало указанное количество осадков.
R24 - Количество осадков - Количество выпавших осадков за 24 часа, мм.
S - Снежный покров - Высота снежного покрова, см. При наведении курсора мыши на число - состояние снежного покрова и степень покрытия местности в баллах.